Temp
63 61 60 59 59 59 60 59 58 58 59 61 60 60 60 60 60 59 59 59 58 58 58 58 58 58 57 57 57 56 56 55 55 54 53 54 54 54 54 53 53 53 53 52 52 51 51 51 50 50 49 48 48 47 47 48 48 48 48 48 48 47 46 45 44 44 45 45 45
62 61 60 57 57 58 59 59 58 58 59 60 60 60 60 59 59 59 59 59 59 58 58 58 58 57 57 57 56 56 55 55 55 54 54 54 54 54 54 53 53 53 52 52 52 51 50 50 49 49 49 48 48 47 47 47 47 48 48 48 47 47 46 45 44 44 44 44 44
62 61 61 60 60 60 60 60 60 60 60 60 60 60 59 59 58 58 59 59 59 58 58 58 57 57 57 57 56 55 55 55 54 54 53 53 54 54 54 53 53 53 52 51 51 51 50 50 49 48 48 48 47 47 47 48 48 48 48 47 46 46 45 45 45 44 44 44 44
62 61 61 61 61 61 60 60 60 60 59 59 60 59 59 59 58 58 58 58 59 58 58 57 57 56 56 55 55 55 55 54 54 54 53 53 53 53 53 53 53 52 52 51 51 50 50 49 49 48 48 47 46 46 47 47 47 47 46 46 46 45 45 45 45 45 45 45 44
61 60 60 60 60 60 59 59 59 59 58 59 59 59 59 59 58 58 58 58 58 58 57 57 56 56 55 55 55 55 54 54 52 52 53 53 53 53 53 53 52 51 51 51 50 50 50 49 49 48 48 47 47 47 46 47 46 46 46 47 46 46 46 46 46 45 45 45 44
60 60 60 59 59 59 59 59 59 58 58 59 59 58 58 58 58 58 58 58 57 57 56 56 55 54 54 54 54 54 54 54 53 53 53 53 52 52 52 52 52 51 50 50 50 49 49 48 48 48 48 48 47 47 47 47 47 46 46 46 47 46 46 45 45 45 44 44 43
61 61 60 60 60 59 59 59 59 59 58 58 59 58 58 57 57 57 57 57 57 56 56 55 54 54 54 54 54 53 53 53 53 53 53 52 52 51 51 51 51 50 50 50 49 48 48 47 48 47 47 47 47 47 47 47 47 46 45 44 45 45 45 43 44 44 43 42 42
62 61 61 61 61 60 60 60 59 59 58 59 58 57 57 57 57 56 56 56 56 56 55 55 56 55 55 54 54 53 53 53 53 53 52 51 51 51 50 50 50 50 50 49 48 48 47 47 47 47 47 47 47 47 47 46 46 44 43 43 44 44 43 42 41 42 43 42 42
61 61 61 60 60 60 60 60 59 59 58 58 58 57 56 56 56 56 56 55 55 55 55 55 55 55 55 54 54 54 54 54 53 52 51 51 50 50 50 50 49 49 49 48 48 48 47 47 47 47 47 47 47 46 46 46 44 43 42 43 43 44 44 43 43 43 44 44 44
60 60 60 60 59 59 60 59 59 59 58 58 58 57 55 53 54 55 55 55 54 54 55 55 55 55 55 54 54 54 54 53 53 52 51 50 50 50 49 49 48 48 48 48 48 48 47 47 46 46 46 46 46 46 45 45 44 43 43 43 43 43 44 44 44 44 44 44 43
60 60 60 59 59 59 59 59 59 58 58 58 58 57 56 54 54 55 55 55 54 54 54 55 55 55 54 54 54 54 53 52 51 51 51 50 50 49 49 48 48 47 47 48 48 48 47 47 47 46 46 46 46 46 46 46 45 45 44 44 44 44 44 44 45 44 44 42 42
60 60 60 60 60 60 59 59 59 58 58 58 58 58 57 56 56 56 55 55 54 54 55 55 55 55 54 54 53 53 52 52 52 51 50 50 49 49 48 48 48 48 48 49 49 48 48 48 47 47 47 46 46 46 46 46 46 45 45 44 44 44 44 43 44 43 43 42 41
60 60 60 60 60 60 59 59 59 59 59 58 58 58 57 57 57 56 56 55 54 54 54 55 55 55 54 53 53 52 52 51 51 50 49 49 48 48 48 48 49 49 50 49 49 48 48 47 47 47 47 47 46 46 46 46 45 45 44 43 43 42 42 42 42 41 41 40 40
60 60 59 59 59 59 59 59 58 58 58 58 58 57 57 57 57 56 55 55 55 54 54 54 54 53 53 54 53 52 52 51 50 49 48 48 48 48 49 50 50 50 50 49 48 48 48 48 47 47 47 46 46 45 45 45 45 44 43 42 41 41 40 40 40 40 39 39 39
59 59 59 59 59 59 58 58 58 58 58 58 57 57 57 56 56 55 55 55 55 54 54 54 53 53 53 54 53 52 51 50 49 48 48 49 49 50 50 50 51 50 50 49 48 48 48 48 47 47 47 46 46 46 45 44 44 43 42 41 40 40 40 39 39 39 39 39 39
59 59 59 59 58 58 58 58 58 58 58 57 57 57 57 56 56 55 55 55 54 54 53 53 53 53 53 52 52 51 50 49 49 49 50 50 50 51 51 50 50 50 50 50 49 48 48 47 47 47 47 47 46 46 45 43 42 42 41 40 40 40 40 40 40 40 40 40 39
59 59 59 59 58 58 58 58 58 57 57 57 57 57 57 56 56 55 54 54 54 53 53 53 53 52 52 51 50 50 50 50 50 51 51 51 51 51 51 50 50 50 50 50 49 49 49 47 47 47 47 46 45 44 43 42 41 41 40 40 40 40 40 40 40 40 40 39 39
58 58 59 59 59 58 58 58 57 57 57 57 57 57 56 56 56 55 54 54 53 53 53 53 52 52 51 50 50 50 50 51 51 51 51 51 51 51 51 51 50 50 50 50 49 48 48 48 47 47 46 45 45 44 43 42 41 40 40 40 40 40 40 40 40 40 39 39 39
58 58 59 59 59 58 58 57 57 57 57 57 57 57 56 56 56 55 55 54 53 53 53 52 52 51 51 51 51 50 50 51 51 51 51 51 51 51 51 50 50 50 50 49 48 48 48 47 46 46 46 45 45 44 42 41 41 40 40 40 40 40 40 40 40 40 39 39 39
58 59 59 59 59 58 58 58 57 57 57 57 57 56 56 56 56 55 55 55 53 53 52 52 51 51 51 51 52 52 51 50 51 51 51 51 51 51 50 50 50 49 49 48 48 48 47 47 46 45 46 45 44 43 42 41 40 40 39 39 39 39 40 40 40 40 40 40 40
59 59 59 59 59 58 58 57 57 57 57 56 56 56 56 56 56 55 55 54 53 53 52 52 52 52 52 52 52 52 51 50 50 50 51 51 50 50 50 49 49 48 48 48 47 47 47 47 46 45 44 44 43 42 41 40 39 39 39 39 39 40 40 40 40 40 40 40 40
59 59 59 58 58 58 57 57 57 57 57 56 56 56 56 56 55 55 54 54 53 53 52 51 51 51 51 51 51 51 50 49 50 50 50 50 49 49 49 49 48 48 47 47 47 46 46 45 44 44 43 42 42 41 41 39 39 39 38 38 39 39 40 40 40 40 40 40 41
58 58 58 58 57 57 57 57 57 57 56 56 56 56 56 55 55 55 54 54 53 52 52 51 51 51 51 51 51 51 50 50 50 49 49 49 49 49 49 48 48 47 47 46 44 43 43 43 43 43 42 42 41 41 40 39 38 38 38 38 38 38 39 39 39 39 40 40 41
57 57 57 57 57 58 57 57 57 56 56 56 56 56 55 55 55 55 54 54 53 53 53 52 51 51 51 52 51 51 50 50 49 49 49 49 49 49 48 48 47 47 45 42 40 40 39 39 40 40 41 41 41 40 39 38 38 37 37 37 37 37 37 38 38 39 39 40 40
57 57 57 57 57 57 57 56 56 56 56 56 56 56 55 55 55 54 54 54 53 53 53 53 52 51 50 50 50 50 50 49 49 48 48 48 48 48 47 47 47 46 44 38 38 37 37 37 37 38 38 39 39 38 38 37 37 36 36 36 36 36 36 36 37 38 39 40 40
56 56 57 57 57 57 57 56 56 56 56 56 55 55 55 55 55 54 53 53 53 52 52 52 51 50 49 50 49 49 49 48 48 47 47 47 47 47 47 47 46 44 41 37 37 37 37 37 36 36 36 37 37 36 36 36 36 36 35 35 35 35 35 35 36 37 38 39 40
56 57 57 57 57 57 56 56 56 55 55 55 55 55 55 54 54 54 53 53 52 52 51 51 50 48 47 49 49 48 48 47 47 47 47 47 46 46 46 46 45 42 39 37 37 37 37 37 36 36 35 35 35 35 34 34 34 35 35 34 34 34 34 34 35 36 38 39 39
56 56 56 56 56 56 56 56 56 55 55 55 55 54 54 54 53 53 53 52 52 51 50 49 49 49 48 48 48 48 48 47 47 47 47 46 46 46 46 46 44 40 37 37 37 37 37 36 36 35 35 33 33 33 33 33 33 34 34 34 34 34 35 35 36 37 37 38 38
56 56 56 56 56 56 55 55 55 55 54 54 54 53 53 52 52 52 52 51 51 50 49 49 49 49 48 48 48 47 47 47 47 47 46 46 46 45 45 45 43 39 36 37 37 36 36 36 35 35 35 34 32 32 32 32 33 33 33 34 34 35 35 36 37 37 37 37 36
56 56 55 55 55 55 54 54 54 54 54 53 53 52 52 51 51 51 51 50 50 49 49 49 49 48 48 48 48 47 47 47 47 47 47 46 46 45 45 45 43 39 35 36 36 36 36 35 35 35 34 34 32 31 31 32 32 33 33 34 34 35 36 37 37 37 36 36 35
56 56 55 54 53 53 53 53 53 53 53 52 52 51 51 50 50 50 50 49 49 49 49 49 48 48 48 48 48 47 47 47 47 46 46 46 45 45 45 45 43 38 34 36 36 36 35 35 35 35 34 34 32 31 31 32 32 33 33 34 35 35 36 36 35 35 34 34 33
55 55 54 52 52 52 52 52 52 52 51 51 50 50 50 49 49 49 49 49 49 49 48 48 48 48 47 47 47 47 47 47 46 46 46 46 45 45 45 44 42 37 33 36 35 35 35 35 35 34 34 34 32 31 31 32 33 33 34 35 35 35 35 34 33 33 33 32 31
54 53 52 51 51 51 51 51 51 50 49 49 49 48 48 48 49 49 49 49 49 48 48 48 47 47 47 47 47 46 46 46 46 46 46 46 45 45 44 43 41 36 33 36 35 35 35 35 35 34 34 34 32 32 32 32 33 34 34 34 35 34 34 33 33 32 32 32 31
52 52 51 51 51 50 50 50 49 48 48 47 47 47 48 48 49 49 49 49 49 48 48 48 48 48 47 47 47 46 46 45 45 46 46 46 45 45 44 42 40 37 34 35 35 35 35 35 34 34 34 34 32 32 32 33 33 33 34 34 34 34 33 33 32 32 32 32 32
51 51 51 50 50 50 49 49 49 48 47 47 47 47 48 48 49 49 49 49 49 49 49 48 48 48 48 47 47 46 45 44 45 45 45 45 44 43 42 42 40 36 34 35 35 35 35 34 34 34 33 33 32 31 32 32 32 33 33 33 33 33 32 32 32 32 32 32 32
51 50 49 49 49 49 48 48 48 47 47 47 47 47 48 48 49 49 49 48 48 49 49 48 48 48 47 47 46 46 45 45 45 44 44 44 43 42 41 41 40 37 34 35 35 35 34 34 34 33 33 31 31 31 31 31 31 32 32 32 32 32 32 31 32 32 32 31 31
50 49 48 47 48 48 47 47 47 47 47 47 47 47 48 48 49 49 49 49 49 48 48 48 48 47 47 46 46 46 46 46 45 44 43 42 42 41 41 40 40 37 34 34 34 34 34 34 33 33 32 30 30 30 30 30 30 30 30 30 30 30 30 30 31 31 31 31 31
50 49 48 47 47 47 47 47 46 46 47 47 47 48 48 49 49 49 49 48 48 48 48 47 47 46 46 46 46 46 46 46 44 43 42 42 41 40 39 39 39 38 35 33 34 34 34 34 33 32 31 29 29 29 29 29 29 29 29 29 29 29 29 29 30 30 30 30 32
50 49 48 47 47 47 47 47 47 47 47 47 48 48 49 49 49 49 49 49 48 48 47 46 46 46 45 45 45 45 45 45 44 42 41 41 41 39 38 38 38 37 36 34 34 34 34 34 33 33 31 29 28 28 28 28 28 28 28 28 27 28 28 28 28 29 29 30 33
48 48 47 47 47 47 47 48 47 47 47 47 48 48 49 48 49 49 49 49 48 47 47 46 46 45 45 44 44 44 44 44 43 42 41 41 41 39 38 37 37 37 36 34 34 34 34 33 33 33 31 29 28 28 28 28 27 27 26 26 26 26 27 27 28 28 28 29 31
47 47 47 47 47 48 48 48 48 48 48 47 48 48 48 48 48 49 49 48 48 47 46 45 45 45 44 42 42 43 43 42 42 42 41 40 41 39 38 37 37 37 36 35 34 34 34 33 33 33 31 28 27 27 28 28 27 26 25 26 26 26 26 26 27 27 28 28 29
MSLP
1021.16 1021.32 1021.44 1021.52 1021.64 1021.64 1021.76 1021.84 1021.92 1021.92 1021.92 1021.92 1022.04 1022.20 1022.32 1022.44 1022.52 1022.56 1022.64 1022.64 1022.76 1022.84 1022.96 1023.04 1023.08 1023.16 1023.20 1023.32 1023.48 1023.64 1023.76 1023.88 1023.96 1024.08 1024.16 1024.24 1024.24 1024.24 1024.28 1024.36 1024.36 1024.44 1024.48 1024.48 1024.52 1024.52 1024.52 1024.56 1024.56 1024.56 1024.64 1024.64 1024.68 1024.64 1024.56 1024.48 1024.36 1024.28 1024.24 1024.24 1024.24 1024.24 1024.28 1024.36 1024.40 1024.44 1024.44 1024.44 1024.48
1021.40 1021.52 1021.64 1021.80 1021.80 1021.84 1021.92 1021.96 1022.04 1022.04 1022.00 1022.00 1022.16 1022.28 1022.44 1022.52 1022.64 1022.64 1022.68 1022.72 1022.80 1022.88 1023.00 1023.08 1023.12 1023.16 1023.24 1023.36 1023.52 1023.64 1023.80 1023.92 1023.96 1024.08 1024.16 1024.24 1024.24 1024.20 1024.24 1024.28 1024.32 1024.36 1024.40 1024.44 1024.44 1024.44 1024.48 1024.52 1024.52 1024.56 1024.60 1024.64 1024.68 1024.64 1024.64 1024.52 1024.40 1024.32 1024.24 1024.24 1024.24 1024.24 1024.32 1024.36 1024.40 1024.44 1024.48 1024.48 1024.48
1021.56 1021.72 1021.80 1021.88 1021.88 1021.92 1021.92 1022.00 1022.04 1022.00 1022.00 1022.08 1022.20 1022.36 1022.52 1022.64 1022.72 1022.80 1022.80 1022.80 1022.84 1022.92 1023.04 1023.08 1023.20 1023.20 1023.28 1023.36 1023.52 1023.64 1023.80 1023.88 1023.96 1024.08 1024.16 1024.24 1024.24 1024.24 1024.24 1024.28 1024.32 1024.36 1024.40 1024.40 1024.40 1024.40 1024.40 1024.44 1024.48 1024.52 1024.56 1024.60 1024.64 1024.68 1024.64 1024.56 1024.44 1024.36 1024.32 1024.28 1024.28 1024.32 1024.36 1024.44 1024.48 1024.44 1024.48 1024.52 1024.52
1021.80 1021.88 1021.96 1022.04 1022.04 1022.04 1022.04 1022.08 1022.08 1022.12 1022.16 1022.20 1022.28 1022.40 1022.56 1022.68 1022.80 1022.84 1022.88 1022.88 1022.88 1022.92 1023.08 1023.16 1023.24 1023.36 1023.40 1023.48 1023.56 1023.68 1023.76 1023.84 1023.92 1024.04 1024.16 1024.24 1024.24 1024.24 1024.28 1024.32 1024.32 1024.36 1024.40 1024.40 1024.40 1024.40 1024.40 1024.44 1024.48 1024.52 1024.56 1024.60 1024.60 1024.64 1024.64 1024.60 1024.52 1024.48 1024.40 1024.36 1024.36 1024.40 1024.48 1024.52 1024.52 1024.52 1024.52 1024.52 1024.48
1022.00 1022.16 1022.24 1022.28 1022.24 1022.24 1022.28 1022.32 1022.32 1022.36 1022.36 1022.36 1022.40 1022.52 1022.64 1022.80 1022.88 1022.92 1022.92 1022.96 1022.92 1023.00 1023.12 1023.24 1023.36 1023.48 1023.52 1023.60 1023.64 1023.72 1023.80 1023.84 1023.92 1024.08 1024.12 1024.20 1024.20 1024.24 1024.28 1024.32 1024.36 1024.36 1024.40 1024.44 1024.44 1024.44 1024.44 1024.48 1024.52 1024.52 1024.56 1024.56 1024.56 1024.56 1024.60 1024.56 1024.52 1024.52 1024.48 1024.48 1024.48 1024.52 1024.52 1024.52 1024.52 1024.52 1024.52 1024.48 1024.40
1022.12 1022.28 1022.44 1022.52 1022.48 1022.44 1022.48 1022.52 1022.56 1022.56 1022.56 1022.56 1022.56 1022.64 1022.76 1022.84 1022.92 1022.96 1023.00 1023.04 1023.04 1023.08 1023.20 1023.32 1023.40 1023.52 1023.64 1023.72 1023.76 1023.80 1023.84 1023.92 1023.96 1024.04 1024.08 1024.16 1024.20 1024.24 1024.28 1024.36 1024.36 1024.40 1024.48 1024.48 1024.48 1024.48 1024.52 1024.52 1024.56 1024.52 1024.52 1024.52 1024.52 1024.52 1024.48 1024.48 1024.48 1024.48 1024.52 1024.52 1024.52 1024.52 1024.48 1024.48 1024.44 1024.44 1024.40 1024.36 1024.32
1022.12 1022.28 1022.40 1022.52 1022.52 1022.52 1022.56 1022.64 1022.68 1022.68 1022.68 1022.68 1022.68 1022.80 1022.88 1022.96 1023.04 1023.08 1023.12 1023.16 1023.16 1023.16 1023.24 1023.36 1023.44 1023.56 1023.64 1023.72 1023.80 1023.88 1023.92 1023.96 1024.00 1024.08 1024.08 1024.20 1024.24 1024.32 1024.36 1024.40 1024.40 1024.48 1024.52 1024.52 1024.52 1024.52 1024.56 1024.60 1024.64 1024.60 1024.52 1024.52 1024.44 1024.40 1024.36 1024.36 1024.36 1024.44 1024.48 1024.52 1024.48 1024.48 1024.44 1024.44 1024.40 1024.36 1024.36 1024.36 1024.24
1022.00 1022.12 1022.24 1022.36 1022.48 1022.52 1022.56 1022.64 1022.68 1022.72 1022.72 1022.72 1022.80 1022.88 1023.00 1023.12 1023.20 1023.24 1023.28 1023.32 1023.24 1023.24 1023.28 1023.36 1023.40 1023.52 1023.64 1023.72 1023.80 1023.92 1023.96 1024.04 1024.08 1024.12 1024.24 1024.28 1024.36 1024.40 1024.44 1024.44 1024.44 1024.48 1024.52 1024.52 1024.52 1024.56 1024.60 1024.60 1024.60 1024.52 1024.52 1024.44 1024.40 1024.36 1024.32 1024.28 1024.32 1024.36 1024.40 1024.44 1024.44 1024.44 1024.48 1024.48 1024.40 1024.36 1024.36 1024.24 1024.20
1021.92 1022.08 1022.24 1022.36 1022.48 1022.52 1022.60 1022.64 1022.68 1022.72 1022.76 1022.76 1022.84 1022.96 1023.12 1023.24 1023.36 1023.40 1023.40 1023.36 1023.36 1023.36 1023.36 1023.40 1023.44 1023.52 1023.64 1023.72 1023.80 1023.92 1024.00 1024.08 1024.12 1024.24 1024.32 1024.36 1024.44 1024.48 1024.48 1024.52 1024.52 1024.52 1024.52 1024.56 1024.56 1024.56 1024.52 1024.52 1024.48 1024.44 1024.40 1024.36 1024.32 1024.28 1024.24 1024.24 1024.28 1024.32 1024.36 1024.36 1024.40 1024.44 1024.40 1024.40 1024.36 1024.32 1024.24 1024.16 1024.08
1021.92 1022.08 1022.24 1022.40 1022.52 1022.52 1022.60 1022.64 1022.68 1022.76 1022.80 1022.80 1022.88 1023.04 1023.20 1023.36 1023.44 1023.48 1023.48 1023.48 1023.48 1023.52 1023.52 1023.52 1023.52 1023.60 1023.68 1023.76 1023.88 1023.92 1024.00 1024.08 1024.24 1024.36 1024.44 1024.48 1024.52 1024.52 1024.52 1024.52 1024.52 1024.52 1024.56 1024.52 1024.52 1024.48 1024.40 1024.36 1024.36 1024.32 1024.24 1024.24 1024.20 1024.16 1024.16 1024.16 1024.24 1024.24 1024.32 1024.36 1024.36 1024.36 1024.36 1024.36 1024.32 1024.24 1024.20 1024.12 1024.08
1022.04 1022.12 1022.24 1022.36 1022.40 1022.48 1022.48 1022.52 1022.60 1022.64 1022.72 1022.80 1022.84 1022.92 1023.08 1023.24 1023.36 1023.44 1023.48 1023.52 1023.52 1023.52 1023.56 1023.60 1023.60 1023.64 1023.72 1023.80 1023.92 1023.96 1024.08 1024.20 1024.32 1024.40 1024.52 1024.52 1024.52 1024.52 1024.52 1024.56 1024.56 1024.52 1024.52 1024.48 1024.36 1024.32 1024.24 1024.20 1024.20 1024.16 1024.16 1024.12 1024.08 1024.08 1024.08 1024.08 1024.16 1024.24 1024.24 1024.28 1024.32 1024.32 1024.28 1024.24 1024.28 1024.24 1024.24 1024.16 1024.08
1022.08 1022.16 1022.24 1022.28 1022.36 1022.36 1022.40 1022.40 1022.44 1022.52 1022.56 1022.64 1022.72 1022.80 1022.92 1023.04 1023.12 1023.28 1023.36 1023.44 1023.52 1023.56 1023.52 1023.52 1023.56 1023.64 1023.76 1023.84 1023.92 1024.04 1024.16 1024.24 1024.36 1024.48 1024.52 1024.56 1024.60 1024.64 1024.64 1024.60 1024.56 1024.52 1024.40 1024.32 1024.24 1024.16 1024.08 1024.08 1024.08 1024.08 1024.08 1024.04 1024.04 1024.04 1024.04 1024.08 1024.16 1024.24 1024.24 1024.24 1024.24 1024.28 1024.28 1024.28 1024.32 1024.32 1024.28 1024.24 1024.12
1022.12 1022.20 1022.24 1022.32 1022.36 1022.36 1022.36 1022.36 1022.36 1022.40 1022.44 1022.52 1022.56 1022.68 1022.80 1022.84 1022.92 1023.08 1023.24 1023.36 1023.44 1023.48 1023.52 1023.52 1023.52 1023.64 1023.76 1023.88 1023.96 1024.08 1024.24 1024.28 1024.40 1024.52 1024.56 1024.64 1024.64 1024.64 1024.64 1024.56 1024.52 1024.36 1024.24 1024.16 1024.08 1024.04 1024.04 1024.04 1024.00 1024.00 1023.96 1023.96 1023.96 1024.00 1024.00 1024.04 1024.08 1024.16 1024.24 1024.24 1024.28 1024.32 1024.36 1024.36 1024.36 1024.36 1024.28 1024.24 1024.12
1022.20 1022.24 1022.28 1022.36 1022.36 1022.36 1022.36 1022.40 1022.40 1022.40 1022.44 1022.48 1022.52 1022.64 1022.72 1022.80 1022.92 1023.00 1023.12 1023.20 1023.32 1023.36 1023.40 1023.48 1023.52 1023.64 1023.76 1023.88 1023.96 1024.08 1024.20 1024.32 1024.44 1024.52 1024.60 1024.64 1024.64 1024.64 1024.56 1024.48 1024.36 1024.24 1024.16 1024.08 1024.04 1024.00 1023.96 1023.96 1023.96 1023.96 1023.92 1023.92 1023.92 1023.92 1023.96 1024.00 1024.08 1024.16 1024.24 1024.28 1024.32 1024.36 1024.36 1024.40 1024.40 1024.36 1024.32 1024.24 1024.08
1022.20 1022.24 1022.28 1022.36 1022.36 1022.36 1022.40 1022.40 1022.44 1022.48 1022.52 1022.52 1022.56 1022.64 1022.72 1022.80 1022.88 1022.96 1023.08 1023.16 1023.24 1023.32 1023.36 1023.48 1023.56 1023.64 1023.76 1023.84 1024.00 1024.08 1024.20 1024.32 1024.40 1024.52 1024.56 1024.60 1024.56 1024.52 1024.44 1024.36 1024.24 1024.20 1024.12 1024.08 1024.04 1024.00 1023.96 1023.92 1023.92 1023.92 1023.92 1023.88 1023.88 1023.92 1023.96 1024.04 1024.12 1024.20 1024.24 1024.28 1024.32 1024.36 1024.36 1024.44 1024.44 1024.36 1024.28 1024.20 1024.08
1022.20 1022.24 1022.28 1022.36 1022.36 1022.36 1022.36 1022.40 1022.48 1022.52 1022.60 1022.64 1022.64 1022.68 1022.76 1022.80 1022.88 1022.96 1023.04 1023.16 1023.24 1023.36 1023.44 1023.52 1023.60 1023.64 1023.80 1023.92 1024.04 1024.12 1024.20 1024.28 1024.36 1024.40 1024.44 1024.48 1024.36 1024.36 1024.32 1024.24 1024.24 1024.20 1024.12 1024.08 1024.04 1023.96 1023.92 1023.92 1023.92 1023.92 1023.84 1023.88 1023.92 1023.96 1024.08 1024.12 1024.20 1024.24 1024.24 1024.28 1024.32 1024.36 1024.44 1024.48 1024.44 1024.36 1024.24 1024.16 1024.04
1022.16 1022.20 1022.24 1022.28 1022.32 1022.36 1022.36 1022.44 1022.52 1022.64 1022.68 1022.76 1022.76 1022.80 1022.80 1022.88 1022.92 1023.00 1023.08 1023.16 1023.24 1023.36 1023.44 1023.52 1023.60 1023.68 1023.84 1023.96 1024.08 1024.20 1024.24 1024.24 1024.28 1024.28 1024.32 1024.32 1024.28 1024.24 1024.24 1024.24 1024.24 1024.20 1024.12 1024.08 1024.04 1024.00 1024.00 1023.96 1023.96 1023.92 1023.88 1023.92 1023.96 1024.04 1024.08 1024.16 1024.24 1024.24 1024.24 1024.32 1024.36 1024.44 1024.48 1024.48 1024.40 1024.32 1024.24 1024.08 1024.00
1022.12 1022.16 1022.16 1022.20 1022.20 1022.24 1022.36 1022.40 1022.52 1022.60 1022.68 1022.76 1022.80 1022.84 1022.88 1022.92 1022.92 1023.00 1023.08 1023.12 1023.24 1023.36 1023.44 1023.52 1023.64 1023.76 1023.84 1023.96 1024.08 1024.16 1024.20 1024.16 1024.16 1024.16 1024.20 1024.20 1024.24 1024.24 1024.24 1024.24 1024.20 1024.16 1024.12 1024.12 1024.08 1024.08 1024.08 1024.04 1024.00 1023.92 1023.92 1023.92 1023.92 1024.04 1024.12 1024.20 1024.24 1024.24 1024.24 1024.36 1024.40 1024.44 1024.48 1024.48 1024.36 1024.28 1024.16 1024.08 1023.92
1022.04 1022.04 1022.04 1022.00 1022.04 1022.12 1022.24 1022.36 1022.44 1022.52 1022.60 1022.64 1022.76 1022.84 1022.88 1022.92 1022.92 1023.00 1023.04 1023.08 1023.20 1023.28 1023.40 1023.52 1023.64 1023.76 1023.84 1023.92 1024.00 1024.04 1024.04 1024.04 1024.00 1024.04 1024.08 1024.16 1024.20 1024.24 1024.24 1024.24 1024.20 1024.20 1024.16 1024.16 1024.16 1024.16 1024.12 1024.08 1024.00 1023.92 1023.92 1023.88 1023.92 1024.00 1024.08 1024.12 1024.20 1024.24 1024.28 1024.36 1024.44 1024.48 1024.52 1024.44 1024.36 1024.24 1024.08 1023.96 1023.80
1021.84 1021.84 1021.84 1021.84 1021.92 1022.08 1022.16 1022.24 1022.36 1022.44 1022.52 1022.60 1022.68 1022.80 1022.88 1022.92 1022.92 1022.96 1023.00 1023.04 1023.12 1023.20 1023.32 1023.40 1023.56 1023.64 1023.76 1023.80 1023.84 1023.88 1023.88 1023.88 1023.92 1023.92 1024.04 1024.08 1024.12 1024.16 1024.20 1024.20 1024.24 1024.24 1024.20 1024.20 1024.16 1024.12 1024.08 1024.04 1023.96 1023.92 1023.92 1023.88 1023.92 1024.00 1024.08 1024.12 1024.16 1024.24 1024.28 1024.36 1024.44 1024.48 1024.44 1024.36 1024.24 1024.12 1024.00 1023.88 1023.72
1021.68 1021.68 1021.72 1021.80 1021.92 1022.04 1022.12 1022.24 1022.28 1022.36 1022.48 1022.52 1022.64 1022.76 1022.80 1022.84 1022.92 1022.92 1022.96 1023.00 1023.08 1023.16 1023.24 1023.36 1023.44 1023.52 1023.64 1023.68 1023.72 1023.72 1023.76 1023.80 1023.88 1023.92 1024.00 1024.08 1024.08 1024.12 1024.16 1024.20 1024.24 1024.24 1024.20 1024.16 1024.08 1024.08 1024.04 1024.00 1023.96 1023.96 1023.92 1023.92 1023.96 1024.00 1024.08 1024.08 1024.16 1024.24 1024.36 1024.40 1024.48 1024.44 1024.36 1024.32 1024.20 1024.08 1023.92 1023.80 1023.64
1021.56 1021.64 1021.76 1021.88 1022.04 1022.12 1022.20 1022.28 1022.32 1022.36 1022.44 1022.52 1022.64 1022.68 1022.76 1022.80 1022.84 1022.88 1022.92 1022.92 1023.04 1023.08 1023.20 1023.28 1023.36 1023.44 1023.52 1023.60 1023.64 1023.64 1023.72 1023.80 1023.84 1023.92 1023.96 1024.04 1024.08 1024.08 1024.12 1024.16 1024.16 1024.16 1024.12 1024.08 1024.08 1024.08 1024.08 1024.08 1024.04 1024.00 1024.00 1024.00 1024.00 1024.08 1024.08 1024.16 1024.24 1024.36 1024.40 1024.44 1024.48 1024.44 1024.36 1024.24 1024.16 1024.04 1023.88 1023.72 1023.56
1021.64 1021.80 1021.92 1022.04 1022.16 1022.24 1022.32 1022.36 1022.36 1022.44 1022.52 1022.56 1022.60 1022.64 1022.72 1022.76 1022.80 1022.80 1022.84 1022.84 1022.92 1023.00 1023.08 1023.16 1023.20 1023.32 1023.36 1023.44 1023.52 1023.56 1023.64 1023.68 1023.80 1023.84 1023.92 1023.96 1024.04 1024.08 1024.08 1024.08 1024.12 1024.08 1024.08 1024.12 1024.24 1024.24 1024.24 1024.16 1024.12 1024.12 1024.08 1024.12 1024.12 1024.20 1024.24 1024.32 1024.40 1024.44 1024.48 1024.48 1024.44 1024.40 1024.32 1024.24 1024.08 1023.96 1023.80 1023.64 1023.48
1021.80 1021.92 1022.08 1022.12 1022.24 1022.32 1022.36 1022.36 1022.44 1022.48 1022.52 1022.64 1022.64 1022.64 1022.72 1022.76 1022.76 1022.80 1022.80 1022.80 1022.80 1022.84 1022.92 1023.04 1023.08 1023.16 1023.20 1023.28 1023.36 1023.48 1023.56 1023.64 1023.68 1023.80 1023.84 1023.92 1023.96 1024.00 1024.04 1024.08 1024.08 1024.04 1024.08 1024.36 1024.52 1024.52 1024.44 1024.40 1024.36 1024.36 1024.36 1024.36 1024.36 1024.36 1024.44 1024.52 1024.52 1024.52 1024.52 1024.52 1024.44 1024.36 1024.28 1024.16 1024.08 1023.92 1023.72 1023.52 1023.36
1021.92 1022.04 1022.12 1022.24 1022.24 1022.32 1022.36 1022.44 1022.48 1022.52 1022.52 1022.60 1022.64 1022.68 1022.72 1022.76 1022.76 1022.80 1022.80 1022.80 1022.80 1022.80 1022.80 1022.88 1022.92 1023.04 1023.12 1023.20 1023.32 1023.40 1023.52 1023.56 1023.64 1023.72 1023.80 1023.88 1023.92 1024.00 1024.04 1024.08 1024.04 1024.00 1024.16 1024.64 1024.80 1024.72 1024.64 1024.64 1024.64 1024.64 1024.64 1024.60 1024.60 1024.60 1024.64 1024.64 1024.64 1024.60 1024.56 1024.52 1024.48 1024.36 1024.24 1024.08 1023.96 1023.80 1023.60 1023.40 1023.28
1021.92 1022.04 1022.08 1022.12 1022.20 1022.24 1022.32 1022.36 1022.40 1022.44 1022.52 1022.60 1022.64 1022.72 1022.76 1022.76 1022.80 1022.80 1022.80 1022.80 1022.80 1022.80 1022.80 1022.84 1022.88 1022.96 1023.08 1023.16 1023.24 1023.36 1023.44 1023.52 1023.60 1023.68 1023.80 1023.88 1023.96 1024.04 1024.08 1024.08 1024.00 1024.08 1024.44 1024.80 1024.84 1024.80 1024.80 1024.80 1024.88 1024.92 1024.88 1024.84 1024.84 1024.80 1024.76 1024.68 1024.64 1024.64 1024.56 1024.52 1024.44 1024.32 1024.20 1024.08 1023.88 1023.68 1023.48 1023.36 1023.20
1021.92 1021.96 1022.04 1022.08 1022.12 1022.16 1022.20 1022.28 1022.36 1022.44 1022.52 1022.64 1022.72 1022.80 1022.80 1022.80 1022.84 1022.88 1022.84 1022.80 1022.80 1022.80 1022.80 1022.84 1022.92 1023.00 1023.08 1023.12 1023.20 1023.28 1023.36 1023.48 1023.52 1023.64 1023.72 1023.92 1024.04 1024.08 1024.08 1024.08 1024.08 1024.32 1024.64 1024.92 1024.92 1024.88 1024.88 1024.88 1024.96 1025.04 1025.04 1025.04 1025.00 1024.92 1024.84 1024.76 1024.64 1024.64 1024.56 1024.52 1024.40 1024.32 1024.16 1023.96 1023.76 1023.56 1023.36 1023.28 1023.20
1021.88 1021.92 1022.00 1022.08 1022.08 1022.12 1022.24 1022.32 1022.48 1022.60 1022.68 1022.76 1022.80 1022.84 1022.88 1022.92 1022.92 1022.92 1022.92 1022.92 1022.88 1022.84 1022.84 1022.88 1022.92 1022.92 1023.00 1023.08 1023.16 1023.20 1023.32 1023.36 1023.44 1023.52 1023.68 1023.88 1024.04 1024.08 1024.04 1024.00 1024.16 1024.52 1024.88 1024.92 1024.92 1024.92 1024.92 1025.00 1025.08 1025.16 1025.20 1025.16 1025.08 1025.00 1024.92 1024.80 1024.72 1024.64 1024.56 1024.52 1024.36 1024.24 1024.08 1023.88 1023.64 1023.48 1023.36 1023.32 1023.28
1021.92 1021.96 1022.00 1022.08 1022.08 1022.20 1022.36 1022.52 1022.64 1022.76 1022.80 1022.88 1022.88 1022.88 1022.92 1022.92 1022.92 1022.92 1022.92 1022.92 1022.92 1022.92 1022.88 1022.88 1022.88 1022.88 1022.96 1023.08 1023.08 1023.16 1023.20 1023.28 1023.36 1023.52 1023.68 1023.84 1023.92 1024.00 1024.00 1023.92 1024.12 1024.60 1024.92 1025.00 1025.00 1025.00 1025.08 1025.12 1025.16 1025.20 1025.24 1025.20 1025.12 1025.04 1024.88 1024.80 1024.72 1024.64 1024.60 1024.48 1024.32 1024.16 1023.92 1023.76 1023.56 1023.44 1023.36 1023.40 1023.40
1021.92 1021.92 1021.96 1022.04 1022.16 1022.36 1022.56 1022.76 1022.80 1022.80 1022.80 1022.88 1022.88 1022.88 1022.92 1022.92 1022.92 1022.92 1022.92 1022.92 1022.92 1022.92 1022.88 1022.84 1022.80 1022.84 1022.92 1022.96 1023.04 1023.08 1023.12 1023.20 1023.28 1023.44 1023.64 1023.80 1023.92 1023.96 1023.96 1023.92 1024.08 1024.52 1024.96 1025.08 1025.08 1025.08 1025.12 1025.20 1025.20 1025.24 1025.20 1025.20 1025.12 1025.00 1024.92 1024.84 1024.76 1024.68 1024.56 1024.40 1024.24 1024.08 1023.84 1023.68 1023.56 1023.56 1023.56 1023.56 1023.60
1021.88 1021.92 1021.96 1022.12 1022.36 1022.60 1022.76 1022.80 1022.80 1022.80 1022.80 1022.84 1022.84 1022.88 1022.88 1022.92 1022.92 1022.92 1022.88 1022.84 1022.84 1022.80 1022.80 1022.76 1022.80 1022.80 1022.80 1022.84 1022.92 1023.04 1023.08 1023.20 1023.24 1023.36 1023.60 1023.76 1023.88 1023.92 1023.92 1023.88 1024.12 1024.60 1024.96 1025.08 1025.08 1025.12 1025.16 1025.20 1025.20 1025.20 1025.16 1025.08 1025.00 1024.92 1024.84 1024.80 1024.76 1024.64 1024.48 1024.28 1024.12 1023.96 1023.80 1023.76 1023.72 1023.76 1023.76 1023.76 1023.76
1021.88 1022.00 1022.20 1022.44 1022.60 1022.68 1022.72 1022.72 1022.72 1022.76 1022.80 1022.80 1022.80 1022.88 1022.92 1022.88 1022.84 1022.80 1022.80 1022.72 1022.72 1022.72 1022.72 1022.68 1022.72 1022.72 1022.76 1022.80 1022.88 1022.96 1023.08 1023.12 1023.20 1023.36 1023.52 1023.64 1023.76 1023.84 1023.88 1023.88 1024.32 1024.68 1024.92 1025.00 1025.08 1025.12 1025.16 1025.20 1025.20 1025.16 1025.08 1024.96 1024.92 1024.92 1024.88 1024.80 1024.68 1024.52 1024.36 1024.20 1024.08 1023.96 1023.92 1023.92 1023.96 1023.96 1023.92 1023.96 1023.92
1022.12 1022.36 1022.52 1022.64 1022.64 1022.64 1022.64 1022.68 1022.68 1022.76 1022.80 1022.80 1022.80 1022.84 1022.84 1022.80 1022.72 1022.64 1022.64 1022.60 1022.60 1022.60 1022.64 1022.64 1022.64 1022.64 1022.68 1022.80 1022.84 1022.92 1023.00 1023.12 1023.20 1023.32 1023.44 1023.56 1023.64 1023.80 1023.84 1023.92 1024.44 1024.80 1024.92 1024.92 1025.08 1025.12 1025.16 1025.12 1025.08 1025.04 1024.92 1024.92 1024.92 1024.92 1024.88 1024.76 1024.64 1024.48 1024.32 1024.24 1024.12 1024.08 1024.04 1024.08 1024.08 1024.08 1024.08 1024.08 1024.04
1022.52 1022.68 1022.72 1022.64 1022.64 1022.64 1022.64 1022.72 1022.72 1022.76 1022.80 1022.80 1022.80 1022.80 1022.72 1022.64 1022.60 1022.52 1022.48 1022.44 1022.44 1022.44 1022.48 1022.52 1022.52 1022.56 1022.64 1022.72 1022.80 1022.88 1023.00 1023.08 1023.20 1023.28 1023.36 1023.48 1023.60 1023.76 1023.88 1023.92 1024.48 1024.84 1024.92 1024.92 1025.00 1025.08 1025.08 1025.04 1025.00 1024.92 1024.92 1024.96 1025.00 1024.96 1024.84 1024.76 1024.64 1024.52 1024.40 1024.28 1024.24 1024.20 1024.16 1024.16 1024.16 1024.20 1024.20 1024.12 1024.08
1022.68 1022.72 1022.72 1022.68 1022.68 1022.72 1022.72 1022.76 1022.76 1022.76 1022.76 1022.76 1022.72 1022.68 1022.64 1022.52 1022.48 1022.40 1022.36 1022.32 1022.28 1022.28 1022.32 1022.36 1022.36 1022.44 1022.52 1022.64 1022.72 1022.80 1022.92 1023.04 1023.16 1023.24 1023.32 1023.48 1023.60 1023.76 1023.88 1023.96 1024.44 1024.80 1024.92 1024.88 1024.92 1024.96 1024.96 1024.92 1024.96 1025.00 1025.04 1025.08 1025.08 1025.00 1024.88 1024.80 1024.68 1024.60 1024.52 1024.40 1024.32 1024.28 1024.24 1024.24 1024.24 1024.24 1024.20 1024.16 1024.08
1022.64 1022.68 1022.76 1022.80 1022.80 1022.80 1022.80 1022.76 1022.72 1022.72 1022.68 1022.64 1022.56 1022.52 1022.48 1022.44 1022.36 1022.32 1022.24 1022.16 1022.16 1022.16 1022.20 1022.24 1022.24 1022.36 1022.48 1022.56 1022.64 1022.76 1022.88 1023.00 1023.12 1023.20 1023.32 1023.48 1023.64 1023.80 1023.88 1023.96 1024.28 1024.64 1024.88 1024.88 1024.92 1024.92 1024.92 1024.96 1025.08 1025.12 1025.20 1025.20 1025.16 1025.08 1024.92 1024.84 1024.80 1024.68 1024.60 1024.52 1024.44 1024.40 1024.36 1024.32 1024.28 1024.24 1024.20 1024.16 1024.08
1022.64 1022.68 1022.76 1022.80 1022.80 1022.80 1022.76 1022.72 1022.64 1022.64 1022.56 1022.52 1022.44 1022.40 1022.36 1022.32 1022.28 1022.24 1022.12 1022.08 1022.08 1022.08 1022.08 1022.12 1022.20 1022.28 1022.36 1022.48 1022.60 1022.68 1022.80 1022.88 1023.08 1023.20 1023.36 1023.48 1023.64 1023.76 1023.88 1024.04 1024.16 1024.44 1024.76 1024.88 1024.88 1024.92 1025.00 1025.04 1025.12 1025.24 1025.28 1025.24 1025.20 1025.08 1025.00 1024.92 1024.84 1024.76 1024.64 1024.60 1024.56 1024.52 1024.44 1024.36 1024.32 1024.24 1024.20 1024.12 1024.08
1022.64 1022.72 1022.76 1022.76 1022.76 1022.72 1022.68 1022.64 1022.56 1022.52 1022.44 1022.36 1022.36 1022.32 1022.24 1022.20 1022.16 1022.08 1022.04 1021.96 1021.96 1021.96 1022.04 1022.08 1022.16 1022.28 1022.36 1022.44 1022.56 1022.64 1022.76 1022.88 1023.08 1023.20 1023.36 1023.48 1023.56 1023.72 1023.92 1024.08 1024.12 1024.32 1024.60 1024.84 1024.88 1024.92 1025.04 1025.08 1025.20 1025.24 1025.32 1025.32 1025.24 1025.16 1025.08 1024.96 1024.88 1024.80 1024.72 1024.64 1024.64 1024.56 1024.52 1024.44 1024.36 1024.24 1024.16 1024.08 1024.00
1022.68 1022.68 1022.72 1022.72 1022.68 1022.64 1022.60 1022.52 1022.48 1022.40 1022.36 1022.32 1022.28 1022.24 1022.16 1022.12 1022.08 1021.96 1021.92 1021.84 1021.88 1021.92 1022.04 1022.08 1022.20 1022.32 1022.40 1022.48 1022.56 1022.68 1022.80 1022.92 1023.08 1023.20 1023.36 1023.44 1023.56 1023.72 1023.92 1024.08 1024.12 1024.28 1024.52 1024.80 1024.84 1024.92 1025.00 1025.08 1025.20 1025.24 1025.36 1025.36 1025.36 1025.24 1025.12 1025.04 1024.92 1024.88 1024.80 1024.76 1024.72 1024.64 1024.56 1024.48 1024.36 1024.24 1024.16 1024.04 1023.88
1022.68 1022.68 1022.68 1022.64 1022.56 1022.52 1022.48 1022.40 1022.36 1022.28 1022.24 1022.24 1022.20 1022.16 1022.08 1022.08 1022.00 1021.88 1021.80 1021.80 1021.80 1021.92 1022.08 1022.16 1022.24 1022.36 1022.44 1022.56 1022.64 1022.76 1022.88 1023.00 1023.08 1023.16 1023.28 1023.36 1023.52 1023.68 1023.92 1024.04 1024.08 1024.24 1024.48 1024.68 1024.80 1024.84 1024.92 1025.08 1025.16 1025.24 1025.32 1025.40 1025.36 1025.28 1025.20 1025.08 1024.96 1024.92 1024.88 1024.84 1024.80 1024.68 1024.60 1024.52 1024.36 1024.24 1024.12 1024.00 1023.84
1022.64 1022.64 1022.56 1022.52 1022.48 1022.40 1022.36 1022.32 1022.24 1022.20 1022.20 1022.16 1022.12 1022.08 1022.08 1022.00 1021.92 1021.80 1021.76 1021.80 1021.84 1021.96 1022.08 1022.20 1022.28 1022.36 1022.48 1022.64 1022.72 1022.80 1022.92 1023.04 1023.12 1023.16 1023.20 1023.36 1023.44 1023.64 1023.80 1023.88 1023.92 1024.04 1024.24 1024.52 1024.68 1024.80 1024.88 1024.96 1025.08 1025.20 1025.28 1025.36 1025.32 1025.24 1025.16 1025.08 1025.00 1024.96 1024.92 1024.92 1024.84 1024.76 1024.64 1024.52 1024.36 1024.20 1024.04 1023.92 1023.80
Wind_Speed
5 4 3 3 2 2 2 2 1 1 2 2 2 2 2 2 2 2 2 2 2 2 2 2 2 2 2 3 3 3 3 3 3 3 3 3 3 3 2 2 2 3 3 3 3 3 3 3 2 2 2 2 3 4 4 4 4 4 3 3 3 3 3 4 4 5 6 6 5
5 4 3 2 1 2 2 2 1 1 1 2 2 2 2 2 2 2 2 2 2 2 2 1 2 2 2 3 3 3 2 2 3 3 3 3 4 4 3 2 2 3 3 3 3 3 2 2 2 1 1 2 3 3 4 4 4 4 4 4 3 3 3 4 4 5 5 5 5
4 4 3 2 2 2 2 2 2 2 2 3 3 3 2 2 2 1 1 1 2 2 2 2 2 3 3 3 3 2 2 2 2 2 3 3 4 4 4 3 3 3 4 4 4 3 3 2 2 1 1 2 2 3 4 5 4 4 4 5 4 3 3 3 4 4 4 4 5
4 3 3 2 2 2 2 2 2 3 3 3 3 3 2 2 1 1 1 1 1 2 2 2 2 3 3 3 3 2 2 1 2 2 2 3 3 4 4 4 4 4 4 4 4 4 4 3 2 2 2 2 3 3 3 4 4 4 4 4 3 3 3 3 3 4 4 4 5
4 4 3 3 3 3 3 3 3 3 3 2 2 2 2 2 1 1 0 1 1 2 3 3 3 3 2 2 3 2 2 2 2 2 2 3 3 3 3 4 4 4 4 4 5 5 5 4 3 2 2 2 3 3 3 4 4 4 3 3 3 3 3 3 3 3 4 4 4
4 3 3 2 2 2 2 2 2 2 2 1 1 1 2 2 1 1 1 1 2 2 3 3 2 2 1 2 2 2 2 2 2 2 2 3 3 3 4 4 5 4 4 4 5 5 5 5 3 3 3 3 3 3 4 4 4 3 3 3 3 3 3 3 3 3 4 5 5
4 3 3 2 2 1 1 1 1 1 1 1 2 2 3 3 2 2 2 2 2 2 2 2 1 1 0 1 2 2 2 2 2 2 3 3 3 4 4 4 5 5 5 5 5 5 5 4 3 3 3 3 3 4 4 4 4 3 3 3 3 3 4 4 4 4 4 6 7
5 4 4 3 2 2 1 1 1 0 0 1 2 3 4 4 3 3 2 2 2 1 1 1 0 0 0 1 2 2 3 3 3 3 3 3 4 4 4 4 4 4 4 5 5 4 4 4 3 3 3 3 3 4 4 5 4 4 4 4 4 4 4 4 4 4 5 7 8
4 4 4 3 2 1 1 1 1 1 1 1 3 4 4 3 3 2 2 2 2 2 2 2 1 1 1 2 2 3 3 3 3 3 3 3 3 4 4 4 4 4 4 4 4 5 5 4 3 3 3 3 3 4 4 4 4 5 4 4 4 5 5 5 5 6 7 7 8
4 4 3 3 2 1 1 1 1 0 0 0 2 3 3 2 1 0 1 1 2 2 2 2 2 2 2 2 2 3 3 2 2 3 3 3 4 4 4 4 4 4 4 4 4 5 5 4 4 4 4 4 4 4 5 5 5 5 5 4 4 5 6 6 7 7 8 7 8
4 4 3 3 2 2 2 2 2 2 2 2 2 3 4 4 3 2 1 1 1 2 2 2 2 2 2 2 2 3 2 2 2 3 3 4 4 4 4 4 4 5 5 5 5 5 4 4 4 4 5 4 4 5 5 5 5 6 6 5 5 7 8 8 8 8 8 8 9
3 3 3 2 2 2 2 2 2 2 2 2 2 2 3 3 4 3 2 1 0 1 2 2 3 2 2 2 2 2 2 2 2 3 3 4 4 5 5 5 5 6 7 7 5 4 4 4 4 5 6 6 5 4 5 5 6 6 7 7 7 8 8 9 9 9 8 8 9
2 2 2 2 1 1 1 1 1 1 1 1 1 1 1 1 2 2 2 1 0 1 2 2 2 2 2 2 2 2 2 2 2 3 3 4 4 5 6 6 7 7 7 6 4 4 4 4 5 6 6 6 5 4 4 5 6 6 7 7 7 8 8 9 9 9 8 9 9
2 1 1 1 1 1 1 1 1 1 1 1 0 0 0 1 0 1 1 1 1 1 2 2 2 2 2 2 2 2 2 2 2 3 3 4 5 6 7 7 8 7 6 5 4 4 5 5 5 6 6 6 5 5 5 5 5 5 6 7 7 8 8 8 8 8 9 9 9
2 2 2 2 2 2 2 2 1 1 1 1 1 0 0 1 0 1 1 1 1 1 1 2 2 2 2 3 3 3 3 2 2 3 4 6 7 7 7 7 7 6 6 5 4 4 5 5 5 6 6 6 6 6 5 5 5 5 6 6 7 8 8 8 9 9 9 9 10
2 3 3 3 3 2 2 2 1 1 1 2 2 1 1 1 1 1 1 1 1 1 1 2 2 2 2 3 3 4 3 3 3 4 6 7 7 7 7 7 7 7 7 6 6 5 5 5 5 6 6 6 6 6 6 5 5 6 6 7 7 8 8 9 9 9 10 10 11
4 4 4 4 4 3 2 1 0 1 1 2 2 2 2 2 1 1 1 1 1 1 1 2 2 2 2 3 3 3 3 4 5 6 6 7 7 7 7 7 8 8 8 7 7 7 7 7 7 6 6 6 5 5 5 5 5 6 6 7 8 8 9 10 10 10 10 10 11
5 5 6 6 5 3 2 1 1 1 2 2 3 3 2 2 2 2 1 1 1 1 2 2 2 1 2 2 3 3 3 5 6 6 6 6 7 7 8 8 8 8 8 8 7 8 8 8 8 7 6 5 4 4 4 4 5 6 6 7 8 8 9 10 10 10 10 10 11
6 7 7 6 4 3 2 2 2 2 2 2 3 3 3 3 3 3 2 2 1 2 2 2 2 2 2 3 4 4 4 5 5 5 5 5 6 7 8 8 8 8 8 7 7 7 8 7 7 7 6 5 4 3 4 4 5 5 6 7 8 8 9 10 11 11 10 11 11
8 7 6 4 3 2 2 2 2 2 2 2 3 3 4 4 4 4 3 3 2 2 2 2 2 2 3 4 5 5 5 4 4 4 5 5 6 7 8 8 8 7 7 7 7 7 7 7 7 6 6 5 4 4 4 4 5 6 6 6 7 9 10 11 11 12 12 12 12
8 6 3 1 1 1 2 2 2 2 2 3 3 4 4 4 4 4 4 3 2 2 2 2 3 4 4 5 6 6 4 3 3 4 5 5 6 7 7 7 7 6 6 7 7 7 7 6 6 6 6 5 5 5 5 5 5 6 7 7 8 9 11 12 12 12 12 12 12
5 2 1 2 2 2 3 3 3 2 3 3 3 4 4 4 4 4 4 3 2 2 3 3 3 4 5 5 5 5 4 3 3 4 4 5 5 6 6 6 6 7 7 7 6 6 5 5 5 5 5 5 5 5 6 6 6 7 7 8 9 11 12 12 12 12 12 12 12
0 1 2 2 3 3 3 3 3 3 3 3 4 4 4 4 4 4 4 3 3 3 3 4 4 4 5 5 4 4 4 3 4 4 5 5 6 6 6 5 6 7 6 4 5 5 4 4 4 5 5 5 6 6 6 6 7 7 8 9 10 11 12 12 12 12 12 12 12
3 2 2 2 3 4 5 4 4 4 4 4 4 4 4 5 5 5 4 4 4 4 4 3 4 4 4 4 4 4 4 4 5 5 6 6 6 7 7 6 6 5 4 5 5 5 5 4 4 5 5 5 6 6 6 6 6 7 8 9 10 11 11 12 12 12 12 12 11
2 2 3 4 5 5 5 4 4 5 5 4 4 4 5 5 5 5 5 5 4 4 4 4 4 3 3 3 3 3 4 4 5 5 6 6 6 6 6 5 5 3 4 7 7 8 8 6 5 5 5 5 5 5 5 5 6 7 7 8 9 10 10 11 12 12 12 12 10
2 3 4 5 5 5 5 5 5 5 4 4 5 5 5 6 6 6 6 6 5 5 4 4 4 3 3 3 3 3 4 4 4 5 5 6 6 6 5 5 4 3 5 7 8 9 10 10 8 6 5 4 4 4 5 5 6 7 7 8 8 9 10 10 11 11 10 10 9
3 4 5 5 5 5 5 5 4 5 5 5 6 6 7 7 6 7 7 7 6 6 5 5 4 4 3 3 4 4 4 4 4 4 4 4 5 6 5 5 3 4 6 8 8 9 10 10 9 8 6 4 4 4 4 5 6 6 7 7 8 8 9 10 10 10 10 9 9
3 4 5 5 5 5 5 5 6 6 7 7 7 7 7 7 7 8 8 8 7 6 5 4 4 4 3 3 4 4 4 4 3 3 3 3 4 5 4 4 3 6 8 8 9 9 9 9 8 7 6 4 4 4 4 5 5 6 6 7 7 8 9 9 9 9 8 8 8
3 4 5 5 5 5 6 6 7 7 8 8 7 7 7 7 7 7 8 8 7 6 5 5 4 4 3 4 4 4 4 4 3 2 2 3 4 4 4 4 3 8 10 9 9 9 8 8 7 7 7 6 4 3 4 4 5 5 5 6 7 8 8 8 8 8 8 8 8
4 5 5 5 5 6 6 7 7 7 7 6 6 6 7 7 7 7 7 8 7 6 6 5 4 4 4 4 4 3 3 3 2 2 2 4 4 4 4 4 4 8 11 9 9 8 7 7 7 7 7 7 5 4 4 4 4 5 5 6 7 8 8 8 8 9 9 8 8
5 5 4 5 5 6 6 6 6 6 6 5 6 6 7 7 7 7 7 6 6 6 6 6 6 6 5 4 3 3 3 3 2 2 2 3 4 4 4 4 5 9 11 9 8 7 7 6 6 7 8 8 5 4 4 4 5 5 5 6 7 7 7 7 8 9 9 9 8
4 4 5 6 5 5 5 5 5 5 5 5 6 7 7 8 7 7 6 6 6 6 6 6 6 6 5 3 2 2 3 3 3 3 3 3 3 4 3 3 6 9 10 9 8 7 6 6 7 8 9 10 7 5 4 5 5 6 6 7 7 7 7 7 7 8 9 9 8
5 6 5 4 4 4 4 5 5 5 5 5 6 7 7 8 8 7 7 6 6 6 6 6 6 5 4 3 2 3 3 3 3 3 3 3 3 3 3 3 7 9 10 9 8 7 6 7 9 10 11 11 7 5 5 5 5 5 6 6 7 7 7 7 7 7 7 8 7
6 5 4 4 4 4 4 4 5 5 5 6 6 7 8 8 8 8 7 6 6 5 5 5 5 4 3 2 2 2 2 2 2 2 2 3 3 3 3 3 6 8 10 9 8 7 8 9 11 12 12 11 7 5 5 6 5 5 6 6 6 6 7 7 7 7 7 7 6
4 4 4 4 5 5 5 5 5 6 6 7 7 8 8 8 9 9 8 7 6 5 5 5 4 3 3 2 2 2 2 2 2 1 1 2 2 2 2 3 6 9 10 9 8 9 10 12 12 13 11 9 5 4 5 6 5 6 6 7 7 7 6 6 6 6 6 6 6
3 4 4 4 5 5 5 6 6 6 7 8 8 8 8 8 8 8 8 7 6 6 5 5 3 3 2 2 2 2 2 2 2 1 1 1 1 1 2 2 4 9 11 9 10 10 11 12 12 11 10 7 4 4 4 4 4 5 6 6 6 6 7 6 6 6 5 5 5
3 4 4 4 5 5 6 6 7 7 8 8 8 8 8 8 8 8 7 6 6 6 5 4 3 2 2 2 2 2 2 2 2 1 1 1 1 1 2 2 2 6 10 9 10 10 11 11 11 9 8 5 4 4 4 4 4 4 5 5 6 6 6 5 5 5 5 5 5
4 4 4 5 5 6 7 7 8 8 8 8 8 8 8 8 8 8 7 6 6 5 4 3 2 2 2 3 2 2 2 1 2 2 2 1 2 2 2 1 2 4 8 10 10 10 10 10 9 8 6 4 4 4 4 4 4 4 4 4 5 5 5 5 4 4 5 5 7
4 4 5 5 6 7 8 8 8 8 8 8 8 8 8 8 7 7 7 5 4 3 2 2 2 3 3 3 3 2 2 2 2 2 1 1 2 3 3 1 0 2 6 10 10 9 9 8 8 7 6 4 4 4 3 3 4 4 4 4 4 4 5 4 4 4 4 5 8
4 5 6 7 7 8 8 9 9 8 7 7 8 8 9 8 8 8 7 4 3 2 2 2 3 3 3 3 2 2 2 2 2 2 2 2 2 4 4 2 2 3 6 10 10 9 8 8 7 6 5 3 3 3 3 3 3 4 4 4 4 4 4 4 4 4 4 5 7
5 6 7 7 8 8 8 9 9 8 7 7 8 8 8 7 7 7 5 3 2 2 2 2 3 3 3 2 1 1 1 2 2 2 2 3 1 3 5 4 3 3 5 10 9 9 7 7 6 5 4 2 3 3 3 3 3 4 4 4 4 4 4 4 4 4 4 4 4
Wind_Direction
90 81 70 63 66 69 70 60 35 22 37 61 65 64 57 42 45 58 76 90 85 78 69 61 51 51 55 60 54 43 27 9 4 0 351 332 317 311 308 310 307 304 303 303 303 301 299 305 321 333 337 331 320 311 305 300 298 297 297 298 303 313 323 330 329 326 324 322 320
97 94 88 81 90 104 113 121 146 148 114 87 79 71 62 48 38 36 47 74 85 85 79 68 54 47 48 54 54 44 25 3 354 350 341 326 315 310 305 301 302 303 305 307 303 296 289 292 305 314 317 311 306 304 302 302 303 305 310 316 326 335 337 334 326 322 319 316 314
99 105 113 124 134 138 139 144 146 130 106 90 88 84 78 67 50 32 25 47 84 91 86 71 51 40 35 37 41 37 20 355 344 337 328 318 310 309 311 315 314 315 315 315 310 305 302 303 305 303 300 299 300 301 302 304 308 313 320 329 336 338 334 325 318 314 312 308 306
77 76 77 76 80 77 70 66 69 68 67 69 79 86 90 90 78 52 22 16 77 86 81 65 50 38 29 20 13 6 356 337 327 317 306 296 297 304 313 320 320 321 322 321 318 317 318 323 318 310 299 295 294 293 295 298 305 311 318 328 331 329 324 316 312 309 307 301 300
64 55 46 35 40 41 40 39 46 49 53 56 72 87 97 101 98 86 35 0 59 75 75 66 54 40 24 5 347 335 326 318 309 293 282 279 290 305 318 324 324 326 328 327 327 330 333 336 328 315 301 292 285 281 282 286 294 302 309 318 317 312 306 299 297 296 294 293 292
85 78 67 49 46 45 46 48 55 60 65 72 87 89 85 80 73 55 27 10 35 61 74 78 72 55 21 342 326 318 315 309 297 287 285 294 315 329 334 332 331 332 333 333 335 339 342 344 333 318 304 295 285 278 277 279 285 294 301 305 302 297 291 288 289 290 291 290 290
130 132 130 128 120 110 103 102 104 119 137 143 105 79 62 47 38 28 19 8 14 39 70 96 111 122 249 309 312 313 311 307 299 303 314 335 343 343 339 335 332 331 332 335 338 340 340 336 323 310 301 296 290 285 283 282 287 295 302 305 302 301 300 300 300 299 295 291 290
146 143 139 136 132 127 122 112 99 120 161 127 92 76 62 45 32 20 8 356 355 8 29 56 81 215 292 314 314 310 305 299 302 320 341 353 346 338 331 325 324 326 328 332 330 325 319 311 300 291 287 287 286 288 292 297 305 311 312 310 307 307 306 304 301 295 291 288 291
143 135 126 118 114 113 108 96 56 7 356 53 83 81 73 55 35 12 351 347 357 1 0 352 337 329 325 323 311 302 297 296 311 333 348 348 334 324 317 315 317 318 318 316 308 299 292 284 278 275 275 277 279 285 293 304 311 314 313 310 308 305 302 298 296 294 294 295 299
139 132 128 127 140 160 174 167 160 177 245 80 103 104 103 98 88 337 323 358 6 359 346 331 323 318 315 312 302 295 296 307 329 338 337 328 318 314 313 314 313 308 301 293 284 278 275 272 269 270 272 275 279 286 294 303 310 313 313 310 306 303 302 302 303 305 308 311 312
139 138 141 148 167 185 195 189 179 181 186 192 159 146 144 152 170 186 202 33 8 343 322 309 302 298 297 298 296 299 309 330 338 332 322 317 317 317 316 312 303 292 282 274 269 266 267 268 272 276 280 284 289 295 303 311 314 315 314 311 310 311 312 314 316 317 317 317 315
137 142 149 157 176 200 215 211 195 191 194 199 190 174 168 170 173 174 170 134 341 313 303 297 292 290 291 293 297 306 317 326 322 318 317 319 319 314 307 297 285 277 271 267 266 268 273 279 286 290 292 295 298 303 310 315 316 315 314 315 319 321 323 323 323 321 317 314 311
138 149 158 166 191 223 245 250 241 234 230 224 206 201 207 206 172 161 159 168 243 292 301 303 301 299 296 293 294 297 305 311 313 317 318 317 308 298 287 278 272 271 272 274 280 288 294 295 296 297 299 301 302 306 311 316 317 318 320 324 328 328 327 324 322 318 314 311 306
156 179 190 191 212 235 253 260 260 267 273 276 252 226 278 299 194 147 157 193 252 300 317 319 319 317 310 301 296 297 300 308 313 311 305 296 285 278 274 271 273 277 284 294 300 303 303 300 301 301 303 305 308 312 319 326 328 329 331 333 332 329 325 321 317 315 312 309 306
187 212 219 218 228 237 244 245 250 276 301 315 326 333 286 276 247 180 175 204 250 310 328 324 320 319 319 318 317 317 317 316 307 293 283 277 273 272 274 279 287 295 302 307 307 306 306 306 308 310 311 313 317 323 330 338 341 341 339 337 333 328 323 318 315 313 312 310 309
208 222 225 225 229 232 236 236 251 314 327 323 322 314 293 266 247 211 191 198 214 260 299 300 305 318 331 338 337 333 325 312 293 280 275 274 277 282 289 298 305 308 309 310 312 315 317 318 319 319 320 321 327 332 337 343 344 344 341 338 332 327 321 317 314 312 311 310 309
224 228 228 227 228 229 230 227 244 301 305 300 299 297 292 282 269 242 207 196 203 225 255 274 295 320 336 340 336 326 311 294 283 278 278 283 291 299 305 309 309 309 311 314 319 322 324 324 322 321 321 324 330 335 340 344 346 344 340 336 330 324 319 315 312 310 308 307 306
232 231 230 227 226 224 223 223 235 257 270 280 289 294 296 294 286 276 254 220 213 230 250 265 284 308 318 311 300 290 281 277 276 279 285 294 302 306 308 307 307 310 314 320 323 324 323 321 318 315 315 319 327 336 343 348 346 343 338 333 328 322 316 312 309 307 305 303 301
232 231 228 225 221 219 221 232 246 260 272 284 294 298 300 298 295 289 279 262 239 234 240 250 258 267 275 275 272 267 265 266 274 281 290 299 303 305 305 306 308 313 318 321 320 318 315 312 310 309 310 316 326 337 345 347 344 340 336 331 325 319 314 309 306 304 302 300 299
231 229 226 223 221 228 244 259 268 279 290 300 302 302 301 299 297 291 285 275 260 242 234 237 244 252 260 265 268 269 270 271 283 292 298 302 304 304 305 306 310 314 315 314 311 309 308 307 308 310 314 321 330 338 343 344 342 339 335 330 323 316 311 308 305 303 302 300 300
230 229 230 242 273 285 284 282 285 291 298 302 302 300 298 296 293 288 284 278 270 257 246 245 252 258 264 268 273 277 282 291 302 305 305 305 303 302 303 305 308 309 307 305 306 309 311 313 315 317 321 327 332 337 341 344 342 339 334 327 320 314 310 307 305 304 302 301 300
228 236 321 346 322 303 291 283 283 287 291 295 296 295 295 293 290 287 282 274 262 251 246 245 250 256 261 266 272 278 286 297 305 306 304 303 300 298 299 301 303 301 301 306 317 324 326 325 325 326 329 332 334 338 344 348 344 337 330 323 317 312 309 306 304 303 302 300 300
279 8 357 332 308 293 284 279 280 283 287 290 292 293 294 293 291 288 282 270 255 243 237 235 236 242 249 257 265 274 283 291 295 296 296 295 295 296 298 300 299 299 305 336 354 355 348 343 342 343 343 343 344 347 350 351 343 335 326 320 315 310 307 305 303 301 300 299 299
18 358 329 304 289 284 282 283 286 288 290 290 293 295 295 295 293 290 285 278 267 257 249 242 236 238 245 256 266 276 285 290 292 293 293 294 295 297 299 302 296 302 332 45 37 31 24 13 6 2 0 357 355 354 351 346 338 330 323 317 312 308 304 302 300 299 298 298 300
351 318 294 282 279 280 282 285 288 290 292 296 299 300 301 300 301 299 297 294 288 282 275 270 265 261 261 268 275 281 285 289 290 291 292 293 294 296 298 298 296 322 34 72 63 58 53 45 35 22 10 3 358 351 344 335 330 325 319 314 308 304 301 299 297 296 296 298 303
301 283 277 274 275 276 279 282 288 295 302 309 312 313 314 316 316 314 312 308 304 300 296 291 290 289 289 287 284 282 282 281 282 284 288 293 296 298 298 295 308 14 68 85 78 72 65 58 49 37 18 3 354 344 334 328 325 321 316 310 305 301 299 297 296 296 297 301 310
277 273 273 274 275 278 283 291 304 315 321 323 323 324 326 328 325 321 318 313 310 308 304 299 297 296 293 288 282 277 274 270 270 277 287 296 297 297 296 296 350 57 83 96 86 77 69 62 53 42 26 1 346 336 329 325 322 318 313 307 302 299 296 295 295 298 303 311 320
278 277 277 277 280 287 298 313 323 325 325 323 325 327 327 326 321 318 314 311 310 308 304 298 294 291 287 283 274 268 264 262 268 281 292 292 285 285 290 298 45 84 94 95 85 77 69 63 54 42 27 0 342 329 324 321 319 315 310 304 300 297 295 294 297 304 314 326 333
282 280 279 281 290 305 321 330 327 323 320 320 322 322 320 317 313 310 307 306 304 302 298 293 289 286 281 275 268 264 264 267 279 295 298 288 279 282 290 296 71 95 100 92 85 78 72 64 52 38 22 3 343 328 324 323 319 313 307 301 297 295 295 297 307 319 331 339 341
279 277 281 294 319 332 335 328 319 317 317 319 320 318 315 310 305 302 299 298 296 295 293 291 288 283 277 270 267 268 273 282 295 304 302 293 288 290 296 299 74 99 105 97 90 83 74 62 47 30 14 358 341 329 325 322 314 306 300 294 292 294 300 311 326 336 342 345 343
275 285 309 342 346 339 326 313 312 314 318 321 319 315 310 304 299 294 290 289 288 287 287 288 287 285 280 275 274 278 286 297 308 311 303 291 287 292 301 312 71 100 110 106 94 83 71 56 39 22 8 358 348 338 329 317 306 298 293 292 296 305 317 334 344 348 348 346 343
298 335 356 359 342 323 310 307 312 317 320 319 315 309 303 297 291 285 281 279 280 282 283 283 284 283 282 280 282 286 294 303 313 316 306 288 284 293 313 348 78 101 112 108 94 81 67 50 32 19 10 4 356 342 325 308 300 296 296 300 310 324 339 351 351 348 346 343 341
1 8 1 340 319 310 309 314 316 317 316 313 306 299 293 288 284 279 276 274 276 277 277 278 279 278 277 275 276 282 290 304 315 316 308 294 296 310 334 18 85 103 112 108 95 80 62 44 30 20 13 7 357 338 318 307 304 306 310 316 326 338 347 352 349 346 342 338 335
12 359 337 317 315 316 319 319 317 314 309 303 295 288 284 282 281 280 278 276 276 275 274 274 273 272 267 259 266 278 290 304 310 307 302 303 317 332 352 27 91 108 112 106 92 74 54 41 30 22 14 4 351 331 317 314 316 319 323 326 333 340 347 349 345 340 335 332 329
353 336 328 326 326 325 321 316 312 306 299 291 284 280 279 279 281 282 283 282 282 280 278 274 270 264 255 250 259 276 291 300 295 293 304 324 342 349 2 28 97 106 105 95 81 64 50 41 32 22 12 359 342 324 318 320 322 324 327 329 334 339 343 343 339 334 330 327 325
339 340 340 336 328 320 314 308 301 293 286 280 278 277 278 280 282 283 284 286 287 287 284 277 269 261 256 260 269 278 286 290 294 311 352 18 11 5 5 8 96 101 96 83 73 62 52 43 34 23 10 354 336 323 322 324 324 325 327 330 334 338 339 338 334 329 326 323 321
346 345 339 328 317 308 300 293 286 281 278 276 277 279 281 282 282 282 283 286 288 287 284 276 272 271 279 291 295 295 295 300 322 348 13 36 43 43 28 359 63 95 96 85 75 66 57 48 38 25 11 350 334 326 324 324 323 324 327 331 334 336 335 332 328 324 321 318 314
344 334 322 310 298 290 284 280 278 278 279 280 282 283 284 284 283 283 283 285 286 286 286 288 300 312 319 320 317 319 327 338 351 4 18 33 59 66 63 28 30 89 100 96 85 75 66 56 43 30 14 347 333 326 323 320 321 324 328 332 333 333 332 327 323 319 315 313 312
328 314 300 288 282 278 277 278 279 281 283 285 287 287 287 286 285 285 285 287 290 297 312 332 338 339 336 333 332 336 345 351 357 7 18 26 77 94 103 114 60 100 104 104 95 86 76 66 51 35 17 350 334 324 319 315 320 325 330 334 332 329 326 321 316 313 310 307 312
304 290 281 275 275 277 279 282 283 285 286 289 290 291 290 289 287 287 289 296 314 340 356 354 342 339 338 344 342 341 339 336 338 349 355 349 84 119 137 168 187 139 119 112 105 97 88 79 63 44 24 356 334 321 314 314 322 329 333 334 331 326 321 315 311 307 305 303 309
283 277 275 275 277 280 282 285 286 288 290 292 293 292 291 288 286 289 296 319 348 5 4 351 338 333 334 346 349 337 321 307 312 326 334 327 41 148 162 184 195 171 138 122 117 112 105 94 81 62 38 5 331 317 313 317 326 332 335 334 329 322 316 310 306 303 302 302 304